LAN83MO SAEZ-SUMU

Flight info

Callsign LAN83MO
Flight time 0h 32m
Altitude 19000
Route DORVO1E DORVO A305 TOKAM
Aircraft A320/M-SDE3FGHIRWY/LB1

Departure

Time 2026-05-09 13:48
Airport Ezeiza International Airport - Ministro Pistarini (SAEZ)

Arrival

Time 2026-05-09 14:21
Airport Carrasco General Cesáreo L. Berisso International Airport (SUMU)
Time Latitude Longitude Altitude Speed Heading
2026-05-09 13:05 -34.81543 -58.53945 66 ft 0 kts 320°
2026-05-09 13:38 -34.81547 -58.53941 69 ft 3 kts 320°
2026-05-09 13:38 -34.81567 -58.53920 63 ft 4 kts 320°
2026-05-09 13:38 -34.81588 -58.53899 59 ft 4 kts 320°
2026-05-09 13:38 -34.81608 -58.53878 59 ft 4 kts 321°
2026-05-09 13:39 -34.81630 -58.53858 65 ft 4 kts 326°
2026-05-09 13:39 -34.81653 -58.53841 65 ft 4 kts 336°
2026-05-09 13:39 -34.81678 -58.53833 64 ft 4 kts
2026-05-09 13:39 -34.81691 -58.53839 64 ft 1 kts 42°
2026-05-09 13:40 -34.81693 -58.53841 62 ft 0 kts 42°
2026-05-09 13:42 -34.81692 -58.53840 64 ft 1 kts 42°
2026-05-09 13:43 -34.81684 -58.53821 59 ft 3 kts 75°
2026-05-09 13:43 -34.81692 -58.53783 62 ft 7 kts 120°
2026-05-09 13:43 -34.81775 -58.53703 67 ft 19 kts 148°
2026-05-09 13:43 -34.81884 -58.53611 65 ft 19 kts 126°
2026-05-09 13:44 -34.81934 -58.53466 69 ft 19 kts 107°
2026-05-09 13:44 -34.81962 -58.53315 68 ft 18 kts 103°
2026-05-09 13:44 -34.81992 -58.53170 68 ft 18 kts 103°
2026-05-09 13:44 -34.82021 -58.53025 67 ft 18 kts 104°
2026-05-09 13:45 -34.82050 -58.52887 69 ft 16 kts 104°
2026-05-09 13:45 -34.82086 -58.52715 65 ft 25 kts 104°
2026-05-09 13:45 -34.82125 -58.52511 62 ft 25 kts 103°
2026-05-09 13:45 -34.82164 -58.52311 68 ft 24 kts 103°
2026-05-09 13:46 -34.82203 -58.52117 66 ft 24 kts 104°
2026-05-09 13:46 -34.82245 -58.51912 66 ft 25 kts 104°
2026-05-09 13:46 -34.82346 -58.51788 66 ft 22 kts 188°
2026-05-09 13:46 -34.82450 -58.51821 66 ft 8 kts 199°
2026-05-09 13:47 -34.82492 -58.51854 69 ft 7 kts 236°
2026-05-09 13:47 -34.82513 -58.51911 63 ft 8 kts 263°
2026-05-09 13:47 -34.82481 -58.52138 61 ft 60 kts 282°
2026-05-09 13:47 -34.82351 -58.52882 64 ft 116 kts 282°
2026-05-09 13:48 -34.82153 -58.54012 207 ft 147 kts 279°
2026-05-09 13:48 -34.81943 -58.55201 827 ft 146 kts 276°
2026-05-09 13:48 -34.81724 -58.56436 1548 ft 147 kts 270°
2026-05-09 13:48 -34.81511 -58.57713 1968 ft 167 kts 270°
2026-05-09 13:49 -34.81279 -58.59183 2346 ft 188 kts 270°
2026-05-09 13:49 -34.81116 -58.60860 2663 ft 206 kts 254°
2026-05-09 13:49 -34.81726 -58.62443 3083 ft 217 kts 226°
2026-05-09 13:49 -34.82804 -58.63836 3642 ft 234 kts 223°
2026-05-09 13:50 -34.83952 -58.65259 4656 ft 235 kts 222°
2026-05-09 13:50 -34.85114 -58.66682 5606 ft 239 kts 223°
2026-05-09 13:50 -34.86280 -58.68160 6545 ft 243 kts 225°
2026-05-09 13:50 -34.87518 -58.69576 7420 ft 247 kts 213°
2026-05-09 13:51 -34.89099 -58.70412 8303 ft 253 kts 194°
2026-05-09 13:51 -34.90876 -58.70472 9183 ft 263 kts 174°
2026-05-09 13:51 -34.92590 -58.69649 10001 ft 278 kts 151°
2026-05-09 13:51 -34.94095 -58.68090 10697 ft 292 kts 141°
2026-05-09 13:52 -34.95524 -58.66174 10954 ft 319 kts 133°
2026-05-09 13:52 -34.96825 -58.63848 11212 ft 344 kts 124°
2026-05-09 13:52 -34.97884 -58.61167 11810 ft 356 kts 116°
2026-05-09 13:52 -34.98638 -58.58259 12528 ft 364 kts 107°
2026-05-09 13:53 -34.99040 -58.55192 13275 ft 370 kts 98°
2026-05-09 13:53 -34.99062 -58.52029 13987 ft 377 kts 90°
2026-05-09 13:53 -34.98940 -58.48799 14436 ft 385 kts 91°
2026-05-09 13:53 -34.98864 -58.45517 15028 ft 389 kts 92°
2026-05-09 13:54 -34.98809 -58.42210 15641 ft 392 kts 92°
2026-05-09 13:54 -34.98759 -58.38878 16278 ft 395 kts 92°
2026-05-09 13:54 -34.98703 -58.35519 16961 ft 398 kts 92°
2026-05-09 13:54 -34.98636 -58.32135 17655 ft 400 kts 92°
2026-05-09 13:55 -34.98561 -58.28736 18327 ft 403 kts 92°
2026-05-09 13:55 -34.98481 -58.25353 18814 ft 405 kts 92°
2026-05-09 13:55 -34.98397 -58.21914 18979 ft 405 kts 92°
2026-05-09 13:55 -34.98310 -58.18482 19031 ft 405 kts 92°
2026-05-09 13:56 -34.98224 -58.15048 19027 ft 405 kts 92°
2026-05-09 13:56 -34.98138 -58.11610 19011 ft 405 kts 92°
2026-05-09 13:56 -34.98049 -58.08180 19008 ft 405 kts 92°
2026-05-09 13:56 -34.97960 -58.04749 19006 ft 405 kts 92°
2026-05-09 13:57 -34.97871 -58.01316 19004 ft 405 kts 92°
2026-05-09 13:57 -34.97783 -57.97887 19004 ft 405 kts 92°
2026-05-09 13:57 -34.97608 -57.94454 19003 ft 408 kts 86°
2026-05-09 13:57 -34.96974 -57.91061 19009 ft 413 kts 75°
2026-05-09 13:58 -34.95837 -57.87823 19003 ft 418 kts 65°
2026-05-09 13:58 -34.94224 -57.84860 19002 ft 422 kts 54°
2026-05-09 13:58 -34.92372 -57.82145 18999 ft 423 kts 53°
2026-05-09 13:58 -34.90490 -57.79391 19005 ft 423 kts 53°
2026-05-09 13:59 -34.88610 -57.76633 19004 ft 423 kts 53°
2026-05-09 13:59 -34.86732 -57.73875 19004 ft 423 kts 53°
2026-05-09 13:59 -34.84856 -57.71122 19010 ft 423 kts 53°
2026-05-09 13:59 -34.82963 -57.68347 19016 ft 423 kts 53°
2026-05-09 14:00 -34.81106 -57.65630 19021 ft 423 kts 53°
2026-05-09 14:00 -34.80469 -57.64698 19030 ft 424 kts 53°
2026-05-09 14:00 -34.77312 -57.60061 19033 ft 438 kts 53°
2026-05-09 14:00 -34.75368 -57.57107 19030 ft 454 kts 58°
2026-05-09 14:01 -34.73777 -57.53759 19028 ft 463 kts 69°
2026-05-09 14:01 -34.72725 -57.50070 19028 ft 461 kts 81°
2026-05-09 14:01 -34.72271 -57.46236 19030 ft 456 kts 92°
2026-05-09 14:01 -34.72395 -57.42414 19033 ft 451 kts 101°
2026-05-09 14:02 -34.72723 -57.38619 19030 ft 451 kts 101°
2026-05-09 14:02 -34.73044 -57.34826 19256 ft 452 kts 99°
2026-05-09 14:02 -34.73360 -57.31021 19496 ft 453 kts 99°
2026-05-09 14:02 -34.73671 -57.27206 19736 ft 454 kts 99°
2026-05-09 14:03 -34.73984 -57.23376 19941 ft 456 kts 100°
2026-05-09 14:03 -34.74299 -57.19544 20013 ft 456 kts 101°
2026-05-09 14:03 -34.74613 -57.15707 20019 ft 456 kts 99°
2026-05-09 14:03 -34.74923 -57.11875 20020 ft 456 kts 99°
2026-05-09 14:04 -34.75228 -57.08094 20033 ft 455 kts 99°
2026-05-09 14:04 -34.75538 -57.04265 20006 ft 456 kts 99°
2026-05-09 14:04 -34.75849 -57.00436 19980 ft 455 kts 100°
2026-05-09 14:04 -34.76150 -56.96670 20015 ft 436 kts 102°
2026-05-09 14:05 -34.76433 -56.93061 19561 ft 425 kts 102°
2026-05-09 14:05 -34.76718 -56.89462 18589 ft 428 kts 100°
2026-05-09 14:05 -34.77003 -56.85881 17856 ft 423 kts 99°
2026-05-09 14:05 -34.77283 -56.82351 17202 ft 416 kts 99°
2026-05-09 14:06 -34.77560 -56.78863 16574 ft 411 kts 100°
2026-05-09 14:06 -34.77832 -56.75424 15957 ft 407 kts 98°
2026-05-09 14:06 -34.78072 -56.72011 15350 ft 405 kts 97°
2026-05-09 14:06 -34.77972 -56.68585 14728 ft 404 kts 90°
2026-05-09 14:07 -34.77769 -56.65194 14101 ft 401 kts 89°
2026-05-09 14:07 -34.77567 -56.61823 13402 ft 398 kts 89°
2026-05-09 14:07 -34.77374 -56.58528 12733 ft 393 kts 87°
2026-05-09 14:07 -34.77182 -56.55226 12085 ft 389 kts 88°
2026-05-09 14:08 -34.76991 -56.51959 11412 ft 386 kts 88°
2026-05-09 14:08 -34.76798 -56.48725 10897 ft 378 kts 88°
2026-05-09 14:08 -34.76609 -56.45609 10768 ft 361 kts 88°
2026-05-09 14:08 -34.76428 -56.42632 10639 ft 346 kts 88°
2026-05-09 14:09 -34.76255 -56.39773 10513 ft 333 kts 88°
2026-05-09 14:09 -34.76085 -56.37018 10379 ft 319 kts 87°
2026-05-09 14:09 -34.75922 -56.34375 10241 ft 308 kts 90°
2026-05-09 14:09 -34.75765 -56.31779 10159 ft 307 kts 89°
2026-05-09 14:10 -34.75457 -56.26628 9886 ft 305 kts 89°
2026-05-09 14:10 -34.75301 -56.24027 9300 ft 309 kts 89°
2026-05-09 14:10 -34.75141 -56.21434 8842 ft 307 kts 89°
2026-05-09 14:11 -34.74981 -56.18886 8373 ft 306 kts 88°
2026-05-09 14:11 -34.74820 -56.16321 7948 ft 303 kts 88°
2026-05-09 14:11 -34.74662 -56.13780 7311 ft 300 kts 89°
2026-05-09 14:11 -34.74504 -56.11259 6711 ft 298 kts 89°
2026-05-09 14:12 -34.74346 -56.08743 6083 ft 298 kts 89°
2026-05-09 14:12 -34.74192 -56.06241 5469 ft 296 kts 89°
2026-05-09 14:12 -34.74037 -56.03763 4870 ft 293 kts 89°
2026-05-09 14:12 -34.73880 -56.01300 4311 ft 290 kts 89°
2026-05-09 14:13 -34.73726 -55.98877 3846 ft 282 kts 89°
2026-05-09 14:14 -34.72853 -55.84529 3278 ft 231 kts 103°
2026-05-09 14:15 -34.73515 -55.82894 3105 ft 208 kts 149°
2026-05-09 14:15 -34.74761 -55.82257 2954 ft 189 kts 185°
2026-05-09 14:15 -34.75963 -55.82566 2839 ft 168 kts 212°
2026-05-09 14:15 -34.76775 -55.83474 2684 ft 154 kts 238°
2026-05-09 14:16 -34.77092 -55.84671 2552 ft 147 kts 262°
2026-05-09 14:16 -34.77118 -55.85852 2434 ft 136 kts 263°
2026-05-09 14:16 -34.77148 -55.86957 2338 ft 127 kts 261°
2026-05-09 14:16 -34.77183 -55.88024 2241 ft 125 kts 262°
2026-05-09 14:17 -34.77217 -55.89089 2152 ft 127 kts 261°
2026-05-09 14:17 -34.77253 -55.90166 2049 ft 125 kts 261°
2026-05-09 14:17 -34.77287 -55.91220 1948 ft 123 kts 261°
2026-05-09 14:17 -34.77363 -55.92244 1848 ft 120 kts 250°
2026-05-09 14:18 -34.77741 -55.93147 1761 ft 122 kts 234°
2026-05-09 14:18 -34.78263 -55.93966 1703 ft 125 kts 234°
2026-05-09 14:18 -34.78791 -55.94811 1582 ft 126 kts 233°
2026-05-09 14:18 -34.79323 -55.95636 1173 ft 122 kts 235°
2026-05-09 14:19 -34.79816 -55.96472 1059 ft 121 kts 236°
2026-05-09 14:19 -34.80314 -55.97303 925 ft 122 kts 234°
2026-05-09 14:19 -34.80827 -55.98123 795 ft 121 kts 235°
2026-05-09 14:19 -34.81331 -55.98947 663 ft 121 kts 237°
2026-05-09 14:20 -34.81818 -55.99781 511 ft 122 kts 234°
2026-05-09 14:20 -34.82332 -56.00603 344 ft 121 kts 238°
2026-05-09 14:20 -34.82833 -56.01425 152 ft 118 kts 236°
2026-05-09 14:21 -34.83486 -56.02508 86 ft 21 kts 233°
2026-05-09 14:21 -34.83611 -56.02712 82 ft 40 kts 234°
2026-05-09 14:21 -34.83756 -56.02946 70 ft 20 kts 234°
2026-05-09 14:21 -34.83842 -56.03087 72 ft 22 kts 233°
2026-05-09 14:22 -34.83937 -56.03241 66 ft 25 kts 233°
2026-05-09 14:22 -34.84037 -56.03405 70 ft 23 kts 233°
2026-05-09 14:22 -34.84134 -56.03564 63 ft 23 kts 232°
2026-05-09 14:22 -34.84228 -56.03685 66 ft 16 kts 279°
2026-05-09 14:23 -34.84183 -56.03700 65 ft 8 kts 73°
2026-05-09 14:23 -34.84138 -56.03581 61 ft 19 kts 60°
2026-05-09 14:23 -34.84042 -56.03406 67 ft 31 kts 54°
2026-05-09 14:23 -34.83915 -56.03197 63 ft 31 kts 53°
2026-05-09 14:24 -34.83802 -56.03013 70 ft 25 kts 54°
2026-05-09 14:24 -34.83768 -56.02876 69 ft 7 kts 132°
2026-05-09 14:24 -34.83822 -56.02853 69 ft 10 kts 171°
2026-05-09 14:24 -34.83895 -56.02835 66 ft 12 kts 159°
2026-05-09 14:25 -34.83969 -56.02779 69 ft 13 kts 144°
2026-05-09 14:25 -34.83983 -56.02681 73 ft 12 kts 71°
2026-05-09 14:25 -34.83957 -56.02580 75 ft 14 kts 77°
2026-05-09 14:25 -34.83950 -56.02433 77 ft 20 kts 89°
2026-05-09 14:26 -34.83930 -56.02277 82 ft 18 kts 47°
2026-05-09 14:26 -34.83824 -56.02244 84 ft 15 kts
2026-05-09 14:26 -34.83746 -56.02187 88 ft 13 kts 51°
2026-05-09 14:26 -34.83699 -56.02102 87 ft 12 kts 58°
2026-05-09 14:27 -34.83642 -56.02007 90 ft 16 kts 54°
2026-05-09 14:27 -34.83580 -56.01901 94 ft 15 kts 59°
2026-05-09 14:27 -34.83582 -56.01789 94 ft 13 kts 120°
2026-05-09 14:27 -34.83595 -56.01769 93 ft 0 kts 132°